sat.trackr.live / text

‹ back to catalog

STARLINK-2387

NORAD 47806 · 2021-018V

PAYLOAD ACTIVE UNKNOWN

§ Identity

Operator
Country
US
Launch date
2021-03-11
Launch site
AFETR
Launch vehicle
Mass (kg)
RCS (m²)

Purposes: comms

External: N2YO · Heavens-Above · Gunter

§ Orbital elements

Epoch: 2026-09-09T21:01:34.508640Z

Period
94.01 min
Inclination
53.1593°
Eccentricity
0.0001274
Mean motion
15.31716299 rev/d
Perigee alt
469.8 km
Apogee alt
471.6 km
Semi-major
6,848.8 km
B*
7.3187e-5
RAAN
105.8263°
Arg perigee
82.9087°
Mean anomaly
277.2059°
Rev number
30,500

§ Raw data

STARLINK-23871 47806U 21018V   26252.87609385  .00001908  00000+0  73187-4 0  99972 47806  53.1593 105.8263 0001274  82.9087 277.2059 15.31716299305000

JSON: /api/v1/satellites/47806 · /tle

For live sub-satellite position, see the globe view (requires WebGL).

§ Visibility from observer

Set your observer location to see the next 7 days of passes ≥ 10°. The values pass through the URL so the page stays shareable.

No JS? Fill the form by hand. The geolocation button needs JavaScript.